This is the latest recevied weather packets stored in our database for station/object SV9TNF-57. If no packets are shown the sender has not sent any weather packets the latest 10 day(s).
| Time | Temp. | Humidity | Pressure | Rain* | Wind** | Luminosity | Snow |
|---|---|---|---|---|---|---|---|
| 1787910378 | 30.56° C | 51% | 995.9 hPa | 0 mm | 10.28 m/s, 188° | - | - |
| 1787910078 | 30.56° C | 49% | 995.7 hPa | 0 mm | 3.13 m/s, 236° | - | - |
| 1787909778 | 30.56° C | 53% | 996 hPa | 0 mm | 5.36 m/s, 206° | - | - |
| 1787909478 | 30.56° C | 50% | 996.1 hPa | 0 mm | 5.81 m/s, 139° | - | - |
| 1787909178 | 31.11° C | 49% | 996 hPa | 0 mm | 12.07 m/s, 189° | - | - |
| 1787908878 | 31.11° C | 48% | 995.9 hPa | 0 mm | 5.81 m/s, 175° | - | - |
| 1787908578 | 30.56° C | 50% | 996 hPa | 0 mm | 4.02 m/s, 254° | - | - |
| 1787908278 | 30.56° C | 50% | 995.9 hPa | 0 mm | 6.71 m/s, 175° | - | - |
| 1787907978 | 30.56° C | 52% | 996.1 hPa | 0 mm | 8.49 m/s, 172° | - | - |
| 1787907678 | 30° C | 51% | 995.8 hPa | 0 mm | 3.58 m/s, 186° | - | - |
| 1787907378 | 30° C | 53% | 996 hPa | 0 mm | 2.24 m/s, 262° | - | - |
| 1787907077 | 30.56° C | 52% | 995.9 hPa | 0 mm | 12.96 m/s, 136° | - | - |
| 1787906777 | 30° C | 52% | 995.9 hPa | 0 mm | 8.49 m/s, 213° | - | - |
| 1787906477 | 30° C | 52% | 996 hPa | 0 mm | 4.92 m/s, 113° | - | - |
| 1787906178 | 30° C | 53% | 995.6 hPa | 0 mm | 6.71 m/s, 137° | - | - |
| 1787905877 | 30° C | 53% | 995.9 hPa | 0 mm | 3.58 m/s, 125° | - | - |
| 1787905577 | 30° C | 54% | 995.8 hPa | 0 mm | 4.02 m/s, 142° | - | - |
| 1787905277 | 30° C | 55% | 995.8 hPa | 0 mm | 2.68 m/s, 261° | - | - |
| 1787904977 | 30° C | 55% | 996 hPa | 0 mm | 3.13 m/s, 157° | - | - |
| 1787904677 | 29.44° C | 57% | 996 hPa | 0 mm | 0.45 m/s, 172° | - | - |
| 1787904376 | 29.44° C | 57% | 995.8 hPa | 0 mm | 3.58 m/s, 200° | - | - |
| 1787904076 | 29.44° C | 57% | 995.8 hPa | 0 mm | 0.89 m/s, 200° | - | - |
| 1787903777 | 29.44° C | 58% | 995.8 hPa | 0 mm | 4.02 m/s, 196° | - | - |
| 1787903477 | 29.44° C | 57% | 995.7 hPa | 0 mm | 3.58 m/s, 179° | - | - |
| 1787903177 | 30° C | 56% | 995.9 hPa | 0 mm | 4.92 m/s, 189° | - | - |
* Rain latest hour (hover to see other rain measurements)
** Current wind speed in m/s (hover to see current wind gust speed)